Content
SEND FEEDBACK

Daily
Averages
Monthly
Summary
United States of America

GLENS FALLS, NEW YORK


Home > North America > United States > New York
Elevation: 321 feet     Latitude: 43 21N     Longitude: 073 37W

WEATHER
 
SELECT A DAY
Number of Records: 213,124;   Date Range: 1/1/95 - 8/12/14
 
SHARE

PRINT THIS DATA

[ ← Previous Day ]
WEATHER ALMANAC - AUGUST 18, 2013
[ Next Day → ]
[ °C ]   °F
Weather ElementAverageHighLow
Temperature59.5 °F73.9 °F (2:53 pm)53.6 °F (3:36 am)
Dewpoint57.8 °F64.9 °F (5:53 pm)53.6 °F (3:12 am)
Humidity94.8 %100 % (12:33 am)62 % (4:53 pm)
Barometer30.23 in30.29 in (9:53 am)30.10 in (11:19 pm)
Wind Speed0.8 mph8.1 mph (3:53 pm)
Weather ElementAverage
Visibility3.8 mi
Wind DirectionNNE (24.6 °)

Weather ElementTotal
Precipitation---
Heating Degree Days1.3 (Base 65)
Growing Degree Days13.8 (Base 50)
Averaged from 67 records on August 18, 2013
WEATHER CONDITIONS BREAKOUT
WIND DIRECTION BREAKOUT
WEATHER BY HOUR - AUGUST 18, 2013
[ °C ]   °F
Local TimeTemperatureDewpointHumidityBarometerVisibilityWind DirectionWind SpeedGust SpeedPrecipitationEventsConditions
12:26 AM57.2 °F55.4 °F94 %30.27 in2.5 miCalmClear
12:33 AM57.2 °F57.2 °F100 %30.27 in10.0 miCalmClear
12:42 AM57.2 °F57.2 °F100 %30.27 in1.2 miCalmClear
12:48 AM55.4 °F55.4 °F100 %30.27 in0.2 miCalmFogFog
12:53 AM57.0 °F57.0 °F100 %30.27 in0.5 miCalmFogFog
12:58 AM57.2 °F57.2 °F100 %30.27 in2.0 miCalmClear
1:02 AM57.2 °F57.2 °F100 %30.27 in8.0 miCalmPartly Cloudy
1:11 AM55.4 °F55.4 °F100 %30.27 in1.2 miCalmScattered Clouds
1:13 AM55.4 °F55.4 °F100 %30.27 in0.8 miCalmMist
1:37 AM57.2 °F57.2 °F100 %30.27 in1.2 miCalmPartly Cloudy
1:40 AM55.4 °F55.4 °F100 %30.27 in3.0 miCalmPartly Cloudy
1:51 AM55.4 °F55.4 °F100 %30.27 in1.8 miCalmPartly Cloudy
1:53 AM55.9 °F55.0 °F97 %30.27 in1.0 miCalmMist
1:55 AM55.4 °F55.4 °F100 %30.27 in0.8 miCalmClear
2:06 AM55.4 °F55.4 °F100 %30.27 in0.2 miCalmFogFog
2:17 AM55.4 °F55.4 °F100 %30.27 in0.5 miCalmFogFog
2:35 AM55.4 °F55.4 °F100 %30.27 in0.5 miCalmFogFog
2:46 AM55.4 °F55.4 °F100 %30.27 in2.5 miCalmMostly Cloudy
2:53 AM55.0 °F55.0 °F100 %30.27 in8.0 miCalmScattered Clouds
3:12 AM55.4 °F53.6 °F94 %30.27 in1.5 miCalmPartly Cloudy
3:21 AM55.4 °F55.4 °F100 %30.27 in0.5 miCalmFogFog
3:36 AM53.6 °F53.6 °F100 %30.27 in0.2 miCalmFogFog
3:48 AM55.4 °F55.4 °F100 %30.27 in1.2 miCalmPartly Cloudy
3:51 AM55.4 °F55.4 °F100 %30.27 in4.0 miCalmPartly Cloudy
3:53 AM55.9 °F55.9 °F100 %30.27 in3.0 miCalmPartly Cloudy
4:00 AM55.4 °F55.4 °F100 %30.27 in2.5 miCalmPartly Cloudy
4:09 AM55.4 °F55.4 °F100 %30.27 in9.0 miCalmClear
4:40 AM55.4 °F55.4 °F100 %30.27 in1.8 miCalmClear
4:49 AM55.4 °F55.4 °F100 %30.27 in0.5 miCalmFogFog
4:53 AM55.0 °F55.0 °F100 %30.27 in0.5 miCalmFogFog
5:16 AM55.4 °F55.4 °F100 %30.27 in1.5 miCalmClear
5:29 AM55.4 °F55.4 °F100 %30.27 in0.5 miCalmFogFog
5:51 AM55.4 °F55.4 °F100 %30.27 in2.5 miCalmClear
5:53 AM55.0 °F55.0 °F100 %30.27 in3.0 miCalmClear
6:17 AM55.4 °F53.6 °F94 %30.27 in0.8 miCalmClear
6:28 AM53.6 °F53.6 °F100 %30.27 in0.2 miCalmFogFog
6:41 AM55.4 °F55.4 °F100 %30.27 in1.2 miCalmClear
6:45 AM55.4 °F55.4 °F100 %30.27 in3.0 miCalmClear
6:53 AM55.9 °F55.0 °F97 %30.27 in2.5 miCalmClear
7:01 AM55.4 °F55.4 °F100 %30.27 in1.5 miCalmClear
7:06 AM55.4 °F55.4 °F100 %30.28 in3.0 miCalmClear
7:53 AM60.1 °F57.9 °F93 %30.28 in7.0 miCalmClear
8:53 AM63.0 °F60.1 °F90 %30.28 in9.0 miCalmClear
9:53 AM64.9 °F62.1 °F90 %30.29 in9.0 miCalmClear
10:53 AM68.0 °F61.0 °F78 %30.27 in9.0 miCalmClear
11:53 AM69.1 °F60.1 °F73 %30.26 in8.0 miCalmClear
12:53 PM72.0 °F62.1 °F71 %30.24 in9.0 miSouth (180°)4.6 mphClear
1:53 PM73.0 °F62.1 °F68 %30.22 in10.0 miSouth (170°)4.6 mphClear
2:53 PM73.9 °F63.0 °F68 %30.19 in10.0 miSSE (150°)6.9 mphClear
3:53 PM73.9 °F63.0 °F68 %30.17 in10.0 miSouth (170°)8.1 mphClear
4:53 PM73.9 °F60.1 °F62 %30.15 in10.0 miSouth (190°)5.8 mphClear
5:53 PM73.0 °F64.9 °F76 %30.14 in10.0 miSouth (170°)4.6 mphClear
6:53 PM70.0 °F64.0 °F81 %30.13 in10.0 miSSE (160°)5.8 mphClear
7:53 PM66.9 °F63.0 °F87 %30.13 in9.0 miCalmClear
8:53 PM66.0 °F63.0 °F90 %30.12 in9.0 miCalmPartly Cloudy
9:16 PM62.6 °F62.6 °F100 %30.12 in1.8 miCalmClear
9:27 PM62.6 °F62.6 °F100 %30.11 in3.0 miCalmClear
9:38 PM62.6 °F62.6 °F100 %30.11 in1.8 miCalmClear
9:47 PM62.6 °F60.8 °F94 %30.11 in3.0 miCalmClear
9:53 PM63.0 °F61.0 °F93 %30.11 in8.0 miCalmClear
10:53 PM61.0 °F60.1 °F97 %30.11 in8.0 miCalmClear
11:19 PM60.8 °F60.8 °F100 %30.10 in1.0 miCalmMist
11:22 PM60.8 °F60.8 °F100 %30.10 in0.2 miCalmFogFog
11:34 PM62.6 °F60.8 °F94 %30.10 in1.0 miSE (140°)3.5 mphMist
11:37 PM60.8 °F60.8 °F100 %30.10 in2.0 miSSE (160°)3.5 mphPartly Cloudy
11:44 PM59.0 °F59.0 °F100 %30.10 in6.0 miSSE (160°)3.5 mphPartly Cloudy
11:53 PM59.0 °F59.0 °F100 %30.10 in0.8 miCalmMist
Hourly data recorded from KGFL, located miles away from Glens Falls, New York







STORIES FROM OUR PARTNERS